When you browse on this site, cookies collect data to enhance your experience and personalize the content and advertising you see.
Visit our Privacy Policy to learn more. By continuing to use the site, you agree to this use of cookies and data.
  • In Lithuania
  • List of Countries
  • For 7 days
  • Water Temperature
  • Satellite Maps
  • Weather Map
  • Weather Widgets
  • user-avatar
    Login

    Hourly Weather Baku

    Today, 20 April, Saturday

    Time Temperature Precipitation Wind Pressure Humidity
    00:00 +5°C° 0.1 mm 10 mps 763 mmHg 73%
    01:00 +5°C° 0 mm 10 mps 763 mmHg 73%
    02:00 +5°C° 0 mm 10 mps 763 mmHg 73%
    03:00 +5°C° 0 mm 10 mps 763 mmHg 74%
    04:00 +5°C° 0.2 mm 10 mps 763 mmHg 76%
    05:00 +5°C° 0.2 mm 10 mps 763 mmHg 77%
    06:00 +4°C° 0.2 mm 11 mps 763 mmHg 79%
    07:00 +4°C° 0.7 mm 11 mps 763 mmHg 79%
    08:00 +4°C° 0.7 mm 11 mps 763 mmHg 79%
    09:00 +4°C° 0.7 mm 11 mps 763 mmHg 79%
    10:00 +4°C° 0.3 mm 11 mps 763 mmHg 77%
    11:00 +6°C° 0.3 mm 11 mps 763 mmHg 75%
    12:00 +6°C° 0.3 mm 11 mps 764 mmHg 74%
    13:00 +6°C° 0.1 mm 11 mps 764 mmHg 72%
    14:00 +7°C° 0.1 mm 11 mps 764 mmHg 71%
    15:00 +7°C° 0.1 mm 10 mps 764 mmHg 69%
    16:00 +7°C° 0 mm 10 mps 764 mmHg 70%
    17:00 +7°C° 0 mm 9 mps 765 mmHg 70%
    18:00 +7°C° 0 mm 9 mps 765 mmHg 70%
    19:00 +6°C° 0 mm 9 mps 765 mmHg 71%
    20:00 +6°C° 0 mm 8 mps 766 mmHg 72%
    21:00 +6°C° 0 mm 8 mps 766 mmHg 73%
    22:00 +6°C° 0 mm 8 mps 766 mmHg 73%
    23:00 +6°C° 0 mm 8 mps 766 mmHg 74%

    Tomorrow, 21 April, Sunday

    Time Temperature Precipitation Wind Pressure Humidity
    00:00 +5°C° 0 mm 8 mps 766 mmHg 75%
    01:00 +5°C° 0 mm 8 mps 766 mmHg 75%
    02:00 +5°C° 0 mm 7 mps 765 mmHg 75%
    03:00 +5°C° 0 mm 7 mps 765 mmHg 75%
    04:00 +5°C° 0 mm 7 mps 765 mmHg 74%
    05:00 +5°C° 0 mm 6 mps 766 mmHg 74%
    06:00 +7°C° 0 mm 6 mps 766 mmHg 73%
    07:00 +7°C° 0 mm 6 mps 766 mmHg 69%
    08:00 +8°C° 0 mm 6 mps 766 mmHg 65%
    09:00 +9°C° 0 mm 6 mps 766 mmHg 60%
    10:00 +10°C° 0 mm 6 mps 766 mmHg 59%
    11:00 +10°C° 0 mm 6 mps 766 mmHg 57%
    12:00 +11°C° 0 mm 6 mps 766 mmHg 55%
    13:00 +12°C° 0 mm 5 mps 766 mmHg 57%
    14:00 +12°C° 0 mm 5 mps 766 mmHg 58%
    15:00 +12°C° 0 mm 5 mps 765 mmHg 59%
    16:00 +12°C° 0 mm 5 mps 765 mmHg 62%
    17:00 +10°C° 0 mm 5 mps 765 mmHg 64%
    18:00 +11°C° 0 mm 4 mps 765 mmHg 67%
    19:00 +11°C° 0 mm 4 mps 766 mmHg 68%
    20:00 +10°C° 0 mm 4 mps 766 mmHg 70%
    21:00 +10°C° 0 mm 4 mps 766 mmHg 71%
    22:00 +10°C° 0 mm 4 mps 766 mmHg 73%
    23:00 +10°C° 0 mm 4 mps 766 mmHg 74%

    Day after tomorrow, 22 April, Monday

    Time Temperature Precipitation Wind Pressure Humidity
    00:00 +8°C° 0 mm 4 mps 765 mmHg 75%
    01:00 +8°C° 0 mm 5 mps 765 mmHg 75%
    02:00 +8°C° 0 mm 5 mps 765 mmHg 76%
    03:00 +8°C° 0 mm 6 mps 765 mmHg 76%
    04:00 +8°C° 0 mm 6 mps 765 mmHg 76%
    05:00 +8°C° 0 mm 7 mps 765 mmHg 75%
    06:00 +8°C° 0 mm 7 mps 765 mmHg 75%
    07:00 +9°C° 0 mm 7 mps 765 mmHg 74%
    08:00 +9°C° 0 mm 7 mps 765 mmHg 73%
    09:00 +9°C° 0 mm 7 mps 765 mmHg 72%
    10:00 +10°C° 0 mm 7 mps 765 mmHg 70%
    11:00 +11°C° 0 mm 7 mps 765 mmHg 68%
    12:00 +12°C° 0 mm 7 mps 765 mmHg 66%
    13:00 +11°C° 0.1 mm 7 mps 764 mmHg 65%
    14:00 +11°C° 0.1 mm 7 mps 764 mmHg 64%
    15:00 +11°C° 0.1 mm 7 mps 764 mmHg 63%
    16:00 +11°C° 0 mm 8 mps 764 mmHg 62%
    17:00 +11°C° 0 mm 8 mps 764 mmHg 60%
    18:00 +10°C° 0 mm 9 mps 763 mmHg 59%
    19:00 +10°C° 0.1 mm 9 mps 764 mmHg 59%
    20:00 +10°C° 0.1 mm 9 mps 764 mmHg 59%
    21:00 +10°C° 0.1 mm 9 mps 765 mmHg 58%
    22:00 +9°C° 0.2 mm 10 mps 765 mmHg 59%
    23:00 +9°C° 0.2 mm 11 mps 764 mmHg 61%

    23 April, Tuesday

    Time Temperature Precipitation Wind Pressure Humidity
    00:00 +8°C° 0.2 mm 12 mps 764 mmHg 62%
    01:00 +8°C° 0.2 mm 13 mps 765 mmHg 60%
    02:00 +8°C° 0.2 mm 14 mps 765 mmHg 58%
    03:00 +8°C° 0.2 mm 15 mps 765 mmHg 56%
    04:00 +8°C° 0.2 mm 15 mps 765 mmHg 55%
    05:00 +8°C° 0.2 mm 15 mps 765 mmHg 55%
    06:00 +8°C° 0.2 mm 15 mps 766 mmHg 54%
    07:00 +8°C° 0.3 mm 14 mps 766 mmHg 55%
    08:00 +8°C° 0.3 mm 14 mps 767 mmHg 55%
    09:00 +8°C° 0.3 mm 14 mps 767 mmHg 56%
    10:00 +9°C° 0.2 mm 13 mps 768 mmHg 56%
    11:00 +9°C° 0.2 mm 12 mps 768 mmHg 56%
    12:00 +11°C° 0.2 mm 11 mps 768 mmHg 56%
    13:00 +11°C° 0.1 mm 10 mps 768 mmHg 55%
    14:00 +11°C° 0.1 mm 10 mps 768 mmHg 53%
    15:00 +11°C° 0.1 mm 10 mps 768 mmHg 51%
    16:00 +11°C° 0 mm 9 mps 769 mmHg 51%
    17:00 +11°C° 0 mm 9 mps 769 mmHg 50%
    18:00 +11°C° 0 mm 9 mps 769 mmHg 50%
    19:00 +11°C° 0 mm 8 mps 769 mmHg 51%
    20:00 +11°C° 0 mm 8 mps 770 mmHg 52%
    21:00 +11°C° 0 mm 7 mps 770 mmHg 53%
    22:00 +10°C° 0 mm 7 mps 770 mmHg 54%
    23:00 +10°C° 0 mm 6 mps 770 mmHg 56%

    24 April, Wednesday

    Time Temperature Precipitation Wind Pressure Humidity
    00:00 +10°C° 0 mm 6 mps 770 mmHg 57%
    01:00 +10°C° 0 mm 6 mps 770 mmHg 59%
    02:00 +9°C° 0 mm 6 mps 770 mmHg 60%
    03:00 +9°C° 0 mm 6 mps 770 mmHg 62%
    04:00 +9°C° 0 mm 6 mps 770 mmHg 62%
    05:00 +9°C° 0 mm 6 mps 771 mmHg 61%
    06:00 +9°C° 0 mm 6 mps 771 mmHg 61%
    07:00 +10°C° 0 mm 6 mps 771 mmHg 56%
    08:00 +11°C° 0 mm 7 mps 771 mmHg 51%
    09:00 +11°C° 0 mm 7 mps 772 mmHg 47%
    10:00 +12°C° 0 mm 7 mps 771 mmHg 46%
    11:00 +12°C° 0 mm 7 mps 771 mmHg 45%
    12:00 +14°C° 0 mm 7 mps 771 mmHg 44%
    13:00 +14°C° 0 mm 7 mps 771 mmHg 44%
    14:00 +14°C° 0 mm 7 mps 771 mmHg 44%
    15:00 +14°C° 0 mm 7 mps 771 mmHg 45%
    16:00 +13°C° 0 mm 6 mps 771 mmHg 45%
    17:00 +13°C° 0 mm 6 mps 771 mmHg 46%
    18:00 +13°C° 0 mm 5 mps 771 mmHg 47%
    19:00 +12°C° 0 mm 4 mps 771 mmHg 48%
    20:00 +12°C° 0 mm 3 mps 771 mmHg 50%
    21:00 +13°C° 0 mm 2 mps 772 mmHg 51%
    22:00 +12°C° 0 mm 2 mps 772 mmHg 51%
    23:00 +12°C° 0 mm 1 mps 771 mmHg 51%

    25 April, Thursday

    Time Temperature Precipitation Wind Pressure Humidity
    00:00 +12°C° 0 mm 1 mps 771 mmHg 51%
    01:00 +12°C° 0 mm 1 mps 771 mmHg 51%
    02:00 +12°C° 0 mm 1 mps 771 mmHg 51%
    03:00 +11°C° 0 mm 1 mps 771 mmHg 51%
    04:00 +12°C° 0 mm 1 mps 771 mmHg 51%
    05:00 +12°C° 0 mm 1 mps 771 mmHg 51%
    06:00 +12°C° 0 mm 1 mps 771 mmHg 50%
    07:00 +13°C° 0 mm 2 mps 771 mmHg 47%
    08:00 +14°C° 0 mm 2 mps 772 mmHg 43%
    09:00 +15°C° 0 mm 2 mps 772 mmHg 39%
    10:00 +14°C° 0 mm 3 mps 772 mmHg 38%
    11:00 +16°C° 0 mm 3 mps 771 mmHg 37%
    12:00 +17°C° 0 mm 3 mps 771 mmHg 36%
    13:00 +17°C° 0 mm 3 mps 771 mmHg 36%
    14:00 +17°C° 0 mm 3 mps 771 mmHg 37%
    15:00 +17°C° 0 mm 3 mps 770 mmHg 37%
    16:00 +17°C° 0 mm 2 mps 770 mmHg 39%
    17:00 +16°C° 0 mm 2 mps 770 mmHg 40%
    18:00 +16°C° 0 mm 2 mps 770 mmHg 42%
    19:00 +15°C° 0 mm 2 mps 771 mmHg 44%
    20:00 +15°C° 0 mm 2 mps 771 mmHg 45%
    21:00 +15°C° 0 mm 2 mps 771 mmHg 46%
    22:00 +15°C° 0 mm 2 mps 771 mmHg 46%
    23:00 +13°C° 0 mm 3 mps 770 mmHg 47%
    Show more